This is the latest recevied weather packets stored in our database for station/object KE8WAY. If no packets are shown the sender has not sent any weather packets the latest 10 day(s).
| Time | Temp. | Humidity | Pressure | Rain* | Wind** | Luminosity | Snow |
|---|---|---|---|---|---|---|---|
| 1777980882 | 15° C | 77% | 1003.9 hPa | 0 mm | - | 49 W/m² | - |
| 1777980578 | 15° C | 76% | 1003.5 hPa | 0 mm | - | 46 W/m² | - |
| 1777980276 | 15° C | 76% | 1003.5 hPa | 0 mm | - | 45 W/m² | - |
| 1777979972 | 15° C | 77% | 1003.2 hPa | 0 mm | - | 34 W/m² | - |
| 1777979666 | 14.44° C | 77% | 1003.1 hPa | 0 mm | - | 26 W/m² | - |
| 1777979363 | 15° C | 77% | 1002.9 hPa | 0 mm | - | 23 W/m² | - |
| 1777979060 | 15° C | 77% | 1002.7 hPa | 0 mm | - | 17 W/m² | - |
| 1777978756 | 15° C | 75% | 1002.7 hPa | 0 mm | - | 10 W/m² | - |
| 1777978453 | 15° C | 76% | 1002.7 hPa | 0 mm | - | 6 W/m² | - |
| 1777978149 | 15° C | 76% | 1002.7 hPa | 0 mm | - | 4 W/m² | - |
| 1777977846 | 15° C | 75% | 1002.6 hPa | 0 mm | - | 2 W/m² | - |
| 1777977542 | 15° C | 74% | 1002.2 hPa | 0 mm | - | 0 W/m² | - |
| 1777977240 | 15° C | 73% | 1002.7 hPa | 0 mm | - | 0 W/m² | - |
| 1777976937 | 15° C | 73% | 1002.4 hPa | 0 mm | - | 0 W/m² | - |
| 1777976634 | 15.56° C | 72% | 1002.3 hPa | 0 mm | - | 0 W/m² | - |
| 1777976330 | 15.56° C | 72% | 1002 hPa | 0 mm | - | 0 W/m² | - |
| 1777976025 | 15.56° C | 71% | 1002.1 hPa | 0 mm | - | 0 W/m² | - |
| 1777975722 | 15.56° C | 71% | 1002.1 hPa | 0 mm | - | 0 W/m² | - |
| 1777975418 | 15.56° C | 71% | 1001.9 hPa | 0 mm | - | 0 W/m² | - |
| 1777975113 | 15.56° C | 71% | 1001.9 hPa | 0 mm | - | 0 W/m² | - |
| 1777974812 | 16.11° C | 69% | 1002 hPa | 0 mm | - | 0 W/m² | - |
| 1777974507 | 16.11° C | 68% | 1001.8 hPa | 0 mm | - | 0 W/m² | - |
| 1777974204 | 15.56° C | 68% | 1002 hPa | 0 mm | - | 0 W/m² | - |
| 1777973900 | 15.56° C | 74% | 1001.9 hPa | 0 mm | - | 0 W/m² | - |
| 1777973598 | 15° C | 76% | 1001.7 hPa | 0 mm | - | 0 W/m² | - |
* Rain latest hour (hover to see other rain measurements)
** Current wind speed in m/s (hover to see current wind gust speed)